Flag for Dominican Republic Past Weather in Santiago de los Caballeros, Dominican Republic — Yesterday and Last 2 Weeks

Now
77 °F

Thundershowers. Passing clouds.


Feels Like: 78 °F
Forecast: N/A
Wind: 7 mph from Southeast

Location: Santiago

Current Time: Aug 29, 2016 at 7:43:02 PM

Latest Report: Aug 29, 2016 at 7:00 PM


Visibility: 4 mi

Pressure: 29.98 "Hg

Humidity: 83%

Dew Point: 72 °F

Location of Santiago de los CaballerosLocation

Past Weather in Santiago de los Caballeros — Graph

°F

Santiago de los Caballeros Temperature Yesterday

Maximum temperature yesterday: 91 °F (at 3:00 PM)
Minimum temperature yesterday: 73 °F (at 12:00 AM)
Average temperature yesterday: 78 °F

High & Low Weather Summary for the Past Weeks

 TemperatureHumidityPressure
High95 °F (Aug 18, 4:00 PM)100% (Aug 15, 1:00 AM)30.07 "Hg (Aug 15, 1:00 AM)
Low72 °F (Aug 16, 2:00 AM)36% (Aug 21, 2:00 PM)29.80 "Hg (Aug 25, 4:00 AM)
Average80 °F82%29.97 "Hg
* Reported Aug 14 6:00 PM — Aug 29 6:00 PM, Santiago de los Caballeros, Weather by CustomWeather, © 2016

Note: Actual official high and low records may vary slightly from our data, if they occured in-between our weather recording intervals... More about our weather records

Advertising

Santiago de los Caballeros Weather History for the Previous 24 Hours

Scroll right to see more
 ConditionsComfort  
Time TempWeatherWind HumidityBarometerVisibility
6:00 PM
Mon, Aug 29
77 °FThundershowers. Partly sunny.5 mph89%29.98 "Hg4 mi
5:00 PM75 °FMild.5 mph89%29.92 "HgN/A
4:00 PM77 °FThundershowers. Partly sunny.12 mph74%29.95 "Hg4 mi
3:00 PM90 °FPartly sunny.10 mph63%29.92 "HgN/A
2:00 PM90 °FPartly sunny.12 mph63%29.92 "HgN/A
1:00 PM88 °FPartly sunny.12 mph66%29.95 "HgN/A
12:00 PM86 °FPartly sunny.14 mph75%29.98 "HgN/A
11:00 AM82 °FPartly sunny.10 mph79%29.98 "HgN/A
10:00 AM79 °FOvercast.9 mph89%29.98 "HgN/A
9:00 AM75 °FFog.5 mph100%29.98 "Hg2 mi
8:32 AM73 °FFog.No wind100%29.95 "Hg2 mi
8:00 AM73 °FFog.No wind100%29.95 "Hg2 mi
7:00 AM72 °FPartly sunny.3 mph100%29.95 "HgN/A
6:00 AM72 °FPassing clouds.5 mph100%29.92 "HgN/A
5:00 AM72 °FFog.5 mph100%29.92 "Hg2 mi
3:00 AM72 °FPassing clouds.5 mph100%29.95 "HgN/A
2:00 AM72 °FPassing clouds.5 mph100%29.95 "HgN/A
1:00 AM72 °FPassing clouds.6 mph100%29.95 "HgN/A
12:00 AM72 °FThunderstorms. Passing clouds.No wind100%29.98 "HgN/A
11:00 PM
Sun, Aug 28
73 °FThunderstorms. Passing clouds.No wind94%29.98 "HgN/A
10:00 PM73 °FThunderstorms. Passing clouds.No wind94%30.01 "Hg2 mi
9:00 PM73 °FThunderstorms. Overcast.N/A94%30.01 "Hg2 mi
8:00 PM73 °FThunderstorms. Overcast.7 mph94%30.01 "Hg4 mi
7:00 PM73 °FThunderstorms. Passing clouds.8 mph100%29.95 "Hg3 mi
Weather by CustomWeather, © 2016

See weather overviewHow to use our weather pages